Zurück zum Katalog

GLOBALSTAR M070

AktivKommunikationLEO
NORAD 32264·PAYLOAD·🇺🇸 United States

Gestartet Oct 20, 2007 von Baikonur Cosmodrome

Loading…

Nächste Überflüge (nächste 24 Stunden)

TLE

AktuellSource: Space-Track

Epoche: Sep 14, 2026, 01:31 UTC

1 32264U 07048B   26257.06386740 -.00000084  00000-0  11087-3 0  9995
2 32264  51.9741 185.7814 0000812  70.1480 303.2498 12.62337939870998

Verfolge GLOBALSTAR M070 in Echtzeit mit AllMySat

Download on the App Store